Bel Air, Maryland - USA |
Today's Data File |
9/6/26
Time Wind Dir Wind Spd Wind Gust Hum In Humidity Temp In Temp Raw Barom Wind Chill Press Alt Cloud Base Dens Alt Temp Out R DailyRain 24HrRain RainRate
� mph mph % % �F �F in �F ft ft ft �F/hr in in in/hr
12:00am 352 0 0 45 87 73.3 66.4 29.34 66.4 536 995 1162 -0.86 0.00 0.00 0.000
12:01am 352 0 0 45 87 73.3 66.4 29.34 66.4 536 995 1162 -0.84 0.00 0.00 0.000
12:02am 352 0 0 45 87 73.3 66.4 29.34 66.4 536 995 1162 -0.83 0.00 0.00 0.000
12:03am 352 0 0 46 87 73.3 66.4 29.34 66.4 536 995 1162 -0.82 0.00 0.00 0.000
12:04am 352 0 0 45 87 73.3 66.3 29.34 66.3 537 995 1157 -0.90 0.00 0.00 0.000
12:05am 352 0 0 44 87 73.3 66.2 29.34 66.2 536 995 1149 -0.99 0.00 0.00 0.000
12:06am 352 0 0 45 87 73.3 66.2 29.34 66.2 537 995 1150 -0.97 0.00 0.00 0.000
12:07am 352 0 0 45 87 73.3 66.2 29.34 66.2 536 995 1149 -0.95 0.00 0.00 0.000
12:08am 352 0 0 45 87 73.3 66.2 29.34 66.2 536 995 1149 -0.94 0.00 0.00 0.000
12:09am 352 0 0 44 88 73.3 66.1 29.34 66.1 536 913 1143 -1.02 0.00 0.00 0.000
12:10am 352 0 0 45 88 73.3 66.1 29.34 66.1 536 913 1143 -1.00 0.00 0.00 0.000
12:11am 352 0 0 44 88 73.3 66.0 29.34 66.0 536 913 1136 -1.09 0.00 0.00 0.000
12:12am 352 0 0 44 88 73.3 66.0 29.34 66.0 536 913 1136 -1.07 0.00 0.00 0.000
12:13am 352 0 0 45 88 73.3 66.0 29.35 66.0 536 913 1135 -1.05 0.00 0.00 0.000
12:14am 352 0 0 45 89 73.3 65.9 29.35 65.9 536 832 1129 -1.13 0.00 0.00 0.000
12:15am 352 0 0 45 89 73.3 65.9 29.35 65.9 536 832 1129 -1.11 0.00 0.00 0.000
12:16am 352 0 0 44 88 73.3 65.9 29.35 65.9 536 912 1129 -1.10 0.00 0.00 0.000
12:17am 352 0 0 44 88 73.3 65.8 29.35 65.8 536 912 1122 -1.18 0.00 0.00 0.000
12:18am 352 0 0 44 88 73.1 65.8 29.35 65.8 536 912 1122 -1.16 0.00 0.00 0.000
12:19am 352 0 0 44 88 73.1 65.8 29.35 65.8 536 912 1122 -1.14 0.00 0.00 0.000
12:20am 352 0 0 45 88 73.1 65.7 29.35 65.7 536 912 1116 -1.22 0.00 0.00 0.000
12:21am 352 0 0 44 89 73.1 65.7 29.35 65.7 535 831 1115 -1.20 0.00 0.00 0.000
12:22am 352 0 0 44 89 73.1 65.7 29.35 65.7 536 831 1116 -1.18 0.00 0.00 0.000
12:23am 352 0 0 45 89 73.1 65.6 29.35 65.6 536 831 1109 -1.26 0.00 0.00 0.000
12:24am 352 0 0 44 89 73.1 65.6 29.35 65.6 536 831 1109 -1.23 0.00 0.00 0.000
12:25am 352 0 0 44 89 73.1 65.5 29.35 65.5 536 831 1103 -1.31 0.00 0.00 0.000
12:26am 352 0 0 44 89 73.1 65.5 29.35 65.5 536 831 1103 -1.29 0.00 0.00 0.000
12:27am 352 0 0 44 89 73.1 65.5 29.35 65.5 536 831 1103 -1.27 0.00 0.00 0.000
12:28am 352 0 0 44 89 73.1 65.5 29.35 65.5 536 831 1103 -1.25 0.00 0.00 0.000
12:29am 352 0 0 45 89 73.1 65.4 29.34 65.4 536 830 1098 -1.33 0.00 0.00 0.000
12:30am 352 0 0 45 89 73.1 65.4 29.34 65.4 536 830 1098 -1.31 0.00 0.00 0.000
12:31am 352 0 0 45 89 73.1 65.4 29.34 65.4 537 830 1099 -1.29 0.00 0.00 0.000
12:32am 352 0 0 44 89 73.1 65.4 29.34 65.4 536 830 1098 -1.27 0.00 0.00 0.000
12:33am 352 0 0 44 89 73.1 65.3 29.34 65.3 536 830 1091 -1.34 0.00 0.00 0.000
12:34am 352 0 0 45 89 73.1 65.4 29.34 65.4 536 830 1098 -1.22 0.00 0.00 0.000
12:35am 352 0 0 44 90 73.1 65.3 29.34 65.3 536 751 1091 -1.30 0.00 0.00 0.000
12:36am 352 0 0 44 90 73.1 65.3 29.35 65.3 536 751 1090 -1.28 0.00 0.00 0.000
12:37am 352 0 0 44 90 73.1 65.3 29.35 65.3 536 751 1090 -1.26 0.00 0.00 0.000
12:38am 352 0 0 45 90 73.1 65.3 29.35 65.3 536 751 1090 -1.24 0.00 0.00 0.000
12:39am 352 0 0 44 90 73.1 65.2 29.35 65.2 536 751 1084 -1.32 0.00 0.00 0.000
12:40am 352 0 0 44 90 73.1 65.3 29.35 65.3 536 751 1090 -1.20 0.00 0.00 0.000
12:41am 352 0 0 45 90 73.3 65.2 29.35 65.2 536 751 1084 -1.27 0.00 0.00 0.000
12:42am 352 0 0 44 90 73.3 65.2 29.35 65.2 536 751 1084 -1.25 0.00 0.00 0.000
12:43am 352 0 0 44 90 73.3 65.2 29.35 65.2 535 751 1083 -1.23 0.00 0.00 0.000
12:44am 352 0 0 44 91 73.3 65.2 29.35 65.2 536 672 1084 -1.21 0.00 0.00 0.000
12:45am 352 0 0 45 91 73.3 65.1 29.35 65.1 535 672 1076 -1.29 0.00 0.00 0.000
12:46am 352 0 0 45 91 73.3 65.1 29.35 65.1 535 672 1076 -1.27 0.00 0.00 0.000
12:47am 352 0 0 45 91 73.3 65.1 29.35 65.1 535 672 1076 -1.25 0.00 0.00 0.000
12:48am 352 0 0 45 91 73.3 65.0 29.35 65.0 535 672 1070 -1.33 0.00 0.00 0.000
12:49am 352 0 0 44 91 73.3 65.0 29.35 65.0 535 672 1070 -1.30 0.00 0.00 0.000
12:50am 352 0 0 44 91 73.3 65.0 29.35 65.0 535 672 1070 -1.28 0.00 0.00 0.000
12:51am 352 0 0 45 91 73.3 65.0 29.35 65.0 536 672 1071 -1.26 0.00 0.00 0.000
12:52am 352 0 0 44 91 73.3 64.9 29.35 64.9 536 671 1064 -1.34 0.00 0.00 0.000
12:53am 352 0 0 45 92 73.3 64.9 29.35 64.9 536 594 1064 -1.32 0.00 0.00 0.000
12:54am 352 0 0 45 91 73.3 64.8 29.35 64.8 536 671 1058 -1.40 0.00 0.00 0.000
12:55am 352 0 0 44 92 73.3 64.8 29.35 64.8 535 594 1057 -1.37 0.00 0.00 0.000
12:56am 352 0 0 44 91 73.3 64.8 29.35 64.8 536 671 1058 -1.35 0.00 0.00 0.000
12:57am 352 0 0 44 91 73.5 64.8 29.35 64.8 536 671 1058 -1.33 0.00 0.00 0.000
12:58am 352 0 0 45 91 73.5 64.7 29.35 64.7 536 671 1051 -1.40 0.00 0.00 0.000
12:59am 352 0 0 44 91 73.5 64.7 29.35 64.7 536 671 1051 -1.38 0.00 0.00 0.000
1:00am 352 0 0 45 91 73.5 64.6 29.35 64.6 536 670 1045 -1.46 0.00 0.00 0.000
1:01am 352 0 0 45 91 73.5 64.5 29.35 64.5 536 670 1038 -1.53 0.00 0.00 0.000
1:02am 352 0 0 44 91 73.5 64.5 29.35 64.5 536 670 1038 -1.51 0.00 0.00 0.000
1:03am 352 0 0 45 91 73.5 64.5 29.35 64.5 536 670 1038 -1.48 0.00 0.00 0.000
1:04am 352 0 0 45 91 73.5 64.5 29.35 64.5 536 670 1038 -1.46 0.00 0.00 0.000
1:05am 352 0 0 45 91 73.5 64.5 29.34 64.5 536 670 1040 -1.43 0.00 0.00 0.000
1:06am 352 0 0 44 91 73.5 64.5 29.34 64.5 536 670 1040 -1.41 0.00 0.00 0.000
1:07am 352 0 0 45 91 73.5 64.4 29.34 64.4 536 670 1033 -1.49 0.00 0.00 0.000
1:08am 352 0 0 45 91 73.3 64.4 29.34 64.4 536 670 1033 -1.46 0.00 0.00 0.000
1:09am 352 0 0 45 91 73.3 64.4 29.34 64.4 536 670 1033 -1.44 0.00 0.00 0.000
1:10am 352 0 0 44 91 73.3 64.5 29.34 64.5 536 670 1040 -1.32 0.00 0.00 0.000
1:11am 352 0 0 44 90 73.3 64.5 29.34 64.5 537 748 1041 -1.29 0.00 0.00 0.000
1:12am 352 0 0 44 90 73.3 64.5 29.34 64.5 537 748 1041 -1.27 0.00 0.00 0.000
1:13am 352 0 0 44 90 73.3 64.5 29.34 64.5 538 748 1042 -1.25 0.00 0.00 0.000
1:14am 352 0 0 45 90 73.3 64.5 29.34 64.5 538 748 1042 -1.23 0.00 0.00 0.000
1:15am 352 0 0 44 90 73.3 64.5 29.34 64.5 539 748 1043 -1.21 0.00 0.00 0.000
1:16am 352 0 0 44 90 73.3 64.5 29.34 64.5 539 748 1043 -1.19 0.00 0.00 0.000
1:17am 352 0 0 44 90 73.3 64.6 29.34 64.6 541 749 1052 -1.07 0.00 0.00 0.000
1:18am 352 0 0 45 90 73.1 64.5 29.34 64.5 540 748 1044 -1.15 0.00 0.00 0.000
1:19am 352 0 0 44 90 73.1 64.5 29.34 64.5 541 748 1045 -1.13 0.00 0.00 0.000
1:20am 352 0 0 45 90 73.1 64.5 29.34 64.5 542 748 1046 -1.12 0.00 0.00 0.000
1:21am 352 0 0 45 90 73.1 64.6 29.34 64.6 543 749 1054 -1.00 0.00 0.00 0.000
1:22am 352 0 0 44 90 73.1 64.6 29.33 64.6 546 749 1057 -0.98 0.00 0.00 0.000
1:23am 352 0 0 45 90 73.1 64.6 29.33 64.6 546 749 1057 -0.97 0.00 0.00 0.000
1:24am 352 0 0 44 90 73.1 64.6 29.33 64.6 547 749 1058 -0.95 0.00 0.00 0.000
1:25am 352 0 0 44 90 73.1 64.6 29.33 64.6 548 749 1060 -0.93 0.00 0.00 0.000
1:26am 352 0 0 45 90 73.3 64.5 29.33 64.5 548 748 1053 -1.02 0.00 0.00 0.000
1:27am 352 0 0 45 90 73.3 64.5 29.33 64.5 548 748 1053 -1.00 0.00 0.00 0.000
1:28am 352 0 0 44 90 73.3 64.5 29.33 64.5 548 748 1053 -0.98 0.00 0.00 0.000
1:29am 352 0 0 44 90 73.3 64.5 29.33 64.5 548 748 1053 -0.97 0.00 0.00 0.000
1:30am 352 0 0 44 90 73.3 64.5 29.33 64.5 547 748 1052 -0.95 0.00 0.00 0.000
1:31am 352 0 0 44 90 73.3 64.5 29.33 64.5 548 748 1053 -0.94 0.00 0.00 0.000
1:32am 352 0 0 44 91 73.3 64.5 29.33 64.5 548 670 1053 -0.92 0.00 0.00 0.000
1:33am 352 0 0 45 91 73.3 64.5 29.33 64.5 548 670 1053 -0.90 0.00 0.00 0.000
1:34am 352 0 0 44 91 73.3 64.5 29.33 64.5 548 670 1053 -0.89 0.00 0.00 0.000
1:35am 352 0 0 44 91 73.3 64.5 29.33 64.5 548 670 1053 -0.87 0.00 0.00 0.000
1:36am 352 0 0 45 91 73.3 64.5 29.33 64.5 548 670 1053 -0.86 0.00 0.00 0.000
1:37am 352 0 0 44 91 73.3 64.4 29.33 64.4 547 670 1046 -0.94 0.00 0.00 0.000
1:38am 352 0 0 44 92 73.3 64.4 29.33 64.4 548 593 1047 -0.93 0.00 0.00 0.000
1:39am 352 0 0 44 92 73.3 64.4 29.33 64.4 548 593 1047 -0.91 0.00 0.00 0.000
1:40am 352 0 0 44 91 73.3 64.3 29.33 64.3 548 670 1041 -1.00 0.00 0.00 0.000
1:41am 352 0 0 44 91 73.3 64.3 29.33 64.3 548 670 1041 -0.98 0.00 0.00 0.000
1:42am 352 0 0 45 91 73.3 64.2 29.33 64.2 548 669 1035 -1.06 0.00 0.00 0.000
1:43am 352 0 0 44 91 73.3 64.2 29.33 64.2 548 669 1035 -1.04 0.00 0.00 0.000
1:44am 352 0 0 44 91 73.3 64.2 29.33 64.2 549 669 1036 -1.03 0.00 0.00 0.000
1:45am 352 0 0 44 91 73.3 64.2 29.33 64.2 548 669 1035 -1.01 0.00 0.00 0.000
1:46am 352 0 0 44 91 73.5 64.1 29.33 64.1 548 669 1028 -1.09 0.00 0.00 0.000
1:47am 352 0 0 44 91 73.5 64.2 29.33 64.2 548 669 1035 -0.97 0.00 0.00 0.000
1:48am 352 0 0 44 91 73.5 64.1 29.33 64.1 548 669 1028 -1.06 0.00 0.00 0.000
1:49am 352 0 0 44 91 73.5 64.1 29.33 64.1 548 669 1027 -1.04 0.00 0.00 0.000
1:50am 352 0 0 44 91 73.5 64.1 29.33 64.1 548 669 1027 -1.02 0.00 0.00 0.000
1:51am 352 0 0 44 91 73.5 64.1 29.33 64.1 548 669 1027 -1.00 0.00 0.00 0.000
1:52am 352 0 0 44 91 73.5 64.1 29.33 64.1 548 669 1027 -0.99 0.00 0.00 0.000
1:53am 352 0 0 44 91 73.5 64.1 29.33 64.1 548 669 1027 -0.97 0.00 0.00 0.000
1:54am 352 0 0 44 91 73.5 64.1 29.33 64.1 548 669 1028 -0.96 0.00 0.00 0.000
1:55am 352 0 0 44 91 73.5 64.1 29.33 64.1 548 669 1028 -0.94 0.00 0.00 0.000
1:56am 352 0 0 44 91 73.5 64.1 29.33 64.1 548 669 1028 -0.93 0.00 0.00 0.000
1:57am 352 0 0 44 91 73.5 64.1 29.33 64.1 549 669 1030 -0.91 0.00 0.00 0.000
1:58am 352 0 0 44 91 73.5 64.0 29.33 64.0 549 669 1023 -0.99 0.00 0.00 0.000
1:59am 352 0 0 45 91 73.5 64.0 29.33 64.0 549 669 1023 -0.98 0.00 0.00 0.000
2:00am 352 0 0 44 91 73.5 64.1 29.33 64.1 549 669 1030 -0.86 0.00 0.00 0.000
2:01am 352 0 0 44 91 73.6 64.0 29.33 64.0 549 669 1023 -0.95 0.00 0.00 0.000
2:02am 352 0 0 44 91 73.6 64.1 29.33 64.1 549 669 1030 -0.84 0.00 0.00 0.000
2:03am 352 0 0 45 91 73.6 64.1 29.33 64.1 549 669 1030 -0.82 0.00 0.00 0.000
2:04am 352 0 0 44 91 73.6 64.1 29.33 64.1 549 669 1030 -0.81 0.00 0.00 0.000
2:05am 352 0 0 44 91 73.6 64.1 29.33 64.1 549 669 1030 -0.79 0.00 0.00 0.000
2:06am 352 0 0 44 91 73.6 64.1 29.33 64.1 549 669 1030 -0.78 0.00 0.00 0.000
2:07am 352 0 0 44 91 73.6 64.1 29.33 64.1 549 669 1030 -0.77 0.00 0.00 0.000
2:08am 352 0 0 44 91 73.6 64.1 29.33 64.1 549 669 1030 -0.75 0.00 0.00 0.000
2:09am 352 0 0 44 91 73.6 64.1 29.33 64.1 549 669 1030 -0.74 0.00 0.00 0.000
2:10am 352 0 0 44 91 73.6 64.1 29.33 64.1 549 669 1030 -0.73 0.00 0.00 0.000
2:11am 352 0 0 44 91 73.5 64.0 29.33 64.0 550 669 1024 -0.81 0.00 0.00 0.000
2:12am 352 0 0 44 91 73.5 64.0 29.33 64.0 550 669 1024 -0.80 0.00 0.00 0.000
2:13am 352 0 0 44 91 73.5 64.0 29.33 64.0 549 669 1023 -0.78 0.00 0.00 0.000
2:14am 352 0 0 44 91 73.5 63.9 29.33 63.9 549 668 1017 -0.87 0.00 0.00 0.000
2:15am 352 0 0 44 91 73.5 63.9 29.33 63.9 553 668 1021 -0.86 0.00 0.00 0.000
2:16am 352 0 0 44 91 73.5 63.9 29.33 63.9 553 668 1021 -0.84 0.00 0.00 0.000
2:17am 352 0 0 44 90 73.5 63.8 29.33 63.8 553 746 1015 -0.93 0.00 0.00 0.000
2:18am 352 0 0 44 90 73.5 63.9 29.32 63.9 555 746 1023 -0.81 0.00 0.00 0.000
2:19am 352 0 0 44 90 73.5 63.9 29.32 63.9 555 746 1023 -0.80 0.00 0.00 0.000
2:20am 352 0 0 46 91 73.5 63.8 29.33 63.8 554 668 1016 -0.89 0.00 0.00 0.000
2:21am 352 0 0 45 91 73.5 63.8 29.33 63.8 553 668 1015 -0.87 0.00 0.00 0.000
2:22am 352 0 0 44 91 73.5 63.8 29.33 63.8 553 668 1015 -0.86 0.00 0.00 0.000
2:23am 352 0 0 44 91 73.5 63.8 29.33 63.8 552 668 1014 -0.84 0.00 0.00 0.000
2:24am 352 0 0 44 91 73.5 63.8 29.33 63.8 552 668 1014 -0.83 0.00 0.00 0.000
2:25am 352 0 0 45 91 73.5 63.8 29.33 63.8 552 668 1014 -0.82 0.00 0.00 0.000
2:26am 352 0 0 44 91 73.5 63.8 29.33 63.8 552 668 1014 -0.80 0.00 0.00 0.000
2:27am 352 0 0 44 91 73.5 63.8 29.33 63.8 552 668 1014 -0.79 0.00 0.00 0.000
2:28am 352 0 0 44 92 73.5 63.8 29.33 63.8 551 591 1012 -0.78 0.00 0.00 0.000
2:29am 352 0 0 44 92 73.5 63.8 29.33 63.8 551 591 1012 -0.76 0.00 0.00 0.000
2:30am 352 0 0 44 92 73.5 63.8 29.33 63.8 550 591 1011 -0.75 0.00 0.00 0.000
2:31am 352 0 0 45 91 73.5 63.7 29.33 63.7 550 668 1005 -0.84 0.00 0.00 0.000
2:32am 352 0 0 44 91 73.5 63.7 29.33 63.7 551 668 1006 -0.82 0.00 0.00 0.000
2:33am 352 0 0 44 91 73.5 63.6 29.33 63.6 551 668 999 -0.91 0.00 0.00 0.000
2:34am 352 0 0 44 91 73.5 63.6 29.33 63.6 550 668 998 -0.89 0.00 0.00 0.000
2:35am 352 0 0 44 91 73.5 63.6 29.33 63.6 549 668 997 -0.88 0.00 0.00 0.000
2:36am 352 0 0 44 91 73.5 63.5 29.33 63.5 549 667 991 -0.96 0.00 0.00 0.000
2:37am 352 0 0 44 91 73.5 63.5 29.33 63.5 549 667 991 -0.95 0.00 0.00 0.000
2:38am 352 0 0 44 91 73.5 63.5 29.33 63.5 549 667 991 -0.93 0.00 0.00 0.000
2:39am 352 0 1 44 91 73.6 63.5 29.33 63.5 549 667 991 -0.92 0.00 0.00 0.000
2:40am 352 0 1 44 91 73.6 63.5 29.33 63.5 549 667 991 -0.90 0.00 0.00 0.000
2:41am 352 1 1 45 91 73.6 63.5 29.33 63.5 548 667 990 -0.89 0.00 0.00 0.000
2:42am 352 0 1 45 91 73.6 63.5 29.33 63.5 549 667 991 -0.87 0.00 0.00 0.000
2:43am 352 0 1 45 92 73.6 63.5 29.33 63.5 549 590 991 -0.86 0.00 0.00 0.000
2:44am 352 0 1 44 91 73.6 63.5 29.33 63.5 551 667 993 -0.84 0.00 0.00 0.000
2:45am 352 0 1 45 91 73.6 63.5 29.33 63.5 551 667 993 -0.83 0.00 0.00 0.000
2:46am 352 0 1 45 91 73.6 63.4 29.33 63.4 553 667 989 -0.91 0.00 0.00 0.000
2:47am 352 0 1 44 92 73.6 63.4 29.33 63.4 554 590 990 -0.90 0.00 0.00 0.000
2:48am 352 0 1 44 92 73.6 63.4 29.32 63.4 555 590 991 -0.89 0.00 0.00 0.000
2:49am 352 0 1 44 92 73.6 63.4 29.32 63.4 556 590 992 -0.87 0.00 0.00 0.000
2:50am 352 0 1 44 92 73.6 63.4 29.32 63.4 555 590 991 -0.86 0.00 0.00 0.000
2:51am 352 0 1 45 92 73.6 63.4 29.33 63.4 554 590 990 -0.84 0.00 0.00 0.000
2:52am 352 0 1 44 92 73.6 63.4 29.33 63.4 553 590 989 -0.83 0.00 0.00 0.000
2:53am 352 0 1 44 92 73.6 63.4 29.33 63.4 551 590 986 -0.82 0.00 0.00 0.000
2:54am 352 0 1 44 92 73.6 63.4 29.33 63.4 551 590 986 -0.80 0.00 0.00 0.000
2:55am 352 0 1 44 92 73.6 63.4 29.33 63.4 550 590 985 -0.79 0.00 0.00 0.000
2:56am 352 0 1 45 92 73.6 63.4 29.33 63.4 550 590 985 -0.78 0.00 0.00 0.000
2:57am 352 0 1 44 92 73.8 63.3 29.33 63.3 551 590 980 -0.86 0.00 0.00 0.000
2:58am 352 0 1 44 92 73.8 63.4 29.33 63.4 551 590 986 -0.75 0.00 0.00 0.000
2:59am 352 0 1 44 92 73.8 63.4 29.33 63.4 551 590 986 -0.74 0.00 0.00 0.000
3:00am 352 0 1 44 92 73.8 63.3 29.33 63.3 551 590 980 -0.82 0.00 0.00 0.000
3:01am 352 0 0 44 92 73.8 63.3 29.33 63.3 551 590 980 -0.81 0.00 0.00 0.000
3:02am 352 0 0 44 92 73.8 63.3 29.33 63.3 553 590 982 -0.80 0.00 0.00 0.000
3:03am 352 0 0 44 92 73.8 63.3 29.33 63.3 553 590 982 -0.78 0.00 0.00 0.000
3:04am 352 0 0 44 93 73.8 63.3 29.33 63.3 554 514 983 -0.77 0.00 0.00 0.000
3:05am 352 0 0 44 93 73.8 63.3 29.33 63.3 554 514 983 -0.76 0.00 0.00 0.000
3:06am 352 0 0 45 93 73.8 63.4 29.33 63.4 554 514 990 -0.64 0.00 0.00 0.000
3:07am 352 0 0 44 93 73.8 63.3 29.33 63.3 553 514 982 -0.73 0.00 0.00 0.000
3:08am 352 0 0 44 93 73.8 63.3 29.33 63.3 553 514 982 -0.72 0.00 0.00 0.000
3:09am 352 0 0 44 93 73.8 63.3 29.33 63.3 551 514 980 -0.71 0.00 0.00 0.000
3:10am 352 0 0 45 93 73.8 63.2 29.33 63.2 550 513 972 -0.80 0.00 0.00 0.000
3:11am 352 0 0 44 93 73.8 63.2 29.33 63.2 550 513 972 -0.78 0.00 0.00 0.000
3:12am 352 0 0 44 93 73.8 63.2 29.33 63.2 549 513 971 -0.77 0.00 0.00 0.000
3:13am 352 0 0 44 93 73.8 63.2 29.33 63.2 549 513 971 -0.76 0.00 0.00 0.000
3:14am 352 0 0 44 93 73.6 63.1 29.33 63.1 549 513 965 -0.84 0.00 0.00 0.000
3:15am 352 0 0 44 93 73.6 63.1 29.33 63.1 549 513 965 -0.83 0.00 0.00 0.000
3:16am 352 0 0 44 93 73.6 63.1 29.33 63.1 549 513 965 -0.82 0.00 0.00 0.000
3:17am 352 0 0 44 93 73.6 63.0 29.33 63.0 549 513 958 -0.90 0.00 0.00 0.000
3:18am 352 0 0 44 93 73.6 62.9 29.33 62.9 550 513 953 -0.99 0.00 0.00 0.000
3:19am 352 0 0 44 93 73.6 62.9 29.33 62.9 553 513 956 -0.97 0.00 0.00 0.000
3:20am 352 0 0 44 93 73.6 62.9 29.33 62.9 554 513 957 -0.96 0.00 0.00 0.000
3:21am 352 0 1 44 93 73.6 62.8 29.32 62.8 556 512 953 -1.04 0.00 0.00 0.000
3:22am 352 1 1 44 93 73.6 62.8 29.32 62.8 557 512 954 -1.02 0.00 0.00 0.000
3:23am 352 0 1 44 93 73.6 62.8 29.32 62.8 555 512 952 -1.00 0.00 0.00 0.000
3:24am 352 0 1 44 93 73.6 62.8 29.32 62.8 556 512 953 -0.99 0.00 0.00 0.000
3:25am 352 0 1 44 93 73.6 62.8 29.32 62.8 555 512 952 -0.97 0.00 0.00 0.000
3:26am 352 0 1 44 93 73.6 62.8 29.33 62.8 554 512 951 -0.95 0.00 0.00 0.000
3:27am 352 0 1 44 93 73.6 62.8 29.33 62.8 554 512 951 -0.94 0.00 0.00 0.000
3:28am 352 0 1 44 93 73.6 62.8 29.33 62.8 553 512 950 -0.92 0.00 0.00 0.000
3:29am 352 0 1 44 93 73.6 62.8 29.33 62.8 553 512 950 -0.91 0.00 0.00 0.000
3:30am 352 0 1 44 93 73.6 62.8 29.33 62.8 553 512 950 -0.89 0.00 0.00 0.000
3:31am 352 0 0 44 93 73.6 62.8 29.33 62.8 551 512 948 -0.88 0.00 0.00 0.000
3:32am 352 0 0 44 93 73.6 62.8 29.33 62.8 553 512 950 -0.86 0.00 0.00 0.000
3:33am 352 0 0 44 93 73.6 62.8 29.33 62.8 554 512 951 -0.85 0.00 0.00 0.000
3:34am 352 0 0 44 93 73.6 62.8 29.33 62.8 554 512 951 -0.83 0.00 0.00 0.000
3:35am 352 0 0 44 93 73.6 62.7 29.32 62.7 556 512 947 -0.92 0.00 0.00 0.000
3:36am 352 0 0 44 93 73.6 62.7 29.32 62.7 557 512 948 -0.90 0.00 0.00 0.000
3:37am 352 0 0 44 93 73.8 62.7 29.32 62.7 557 512 948 -0.89 0.00 0.00 0.000
3:38am 352 0 0 44 93 73.8 62.7 29.32 62.7 559 512 950 -0.87 0.00 0.00 0.000
3:39am 352 0 0 44 93 73.8 62.7 29.32 62.7 559 512 950 -0.86 0.00 0.00 0.000
3:40am 352 0 0 44 93 73.8 62.6 29.32 62.6 560 512 945 -0.94 0.00 0.00 0.000
3:41am 352 0 0 44 93 73.8 62.6 29.32 62.6 560 512 945 -0.93 0.00 0.00 0.000
3:42am 352 0 0 44 93 73.8 62.6 29.32 62.6 559 512 944 -0.91 0.00 0.00 0.000
3:43am 352 0 0 44 93 73.8 62.6 29.32 62.6 558 512 942 -0.90 0.00 0.00 0.000
3:44am 352 0 0 44 93 73.8 62.6 29.32 62.6 557 512 941 -0.88 0.00 0.00 0.000
3:45am 352 0 0 44 93 73.8 62.6 29.32 62.6 555 512 939 -0.87 0.00 0.00 0.000
3:46am 352 0 0 44 93 73.8 62.6 29.32 62.6 555 512 939 -0.85 0.00 0.00 0.000
3:47am 352 0 0 44 93 73.8 62.5 29.32 62.5 556 512 934 -0.94 0.00 0.00 0.000
3:48am 352 0 0 44 93 73.8 62.5 29.32 62.5 557 512 935 -0.92 0.00 0.00 0.000
3:49am 352 0 0 44 93 73.8 62.5 29.32 62.5 557 512 935 -0.91 0.00 0.00 0.000
3:50am 352 0 0 44 93 73.8 62.5 29.32 62.5 558 512 936 -0.89 0.00 0.00 0.000
3:51am 352 0 0 44 93 73.8 62.4 29.32 62.4 558 512 929 -0.97 0.00 0.00 0.000
3:52am 352 0 0 45 93 73.8 62.5 29.32 62.5 558 512 936 -0.86 0.00 0.00 0.000
3:53am 352 0 0 44 93 73.8 62.4 29.32 62.4 557 512 928 -0.94 0.00 0.00 0.000
3:54am 352 0 0 45 93 73.8 62.4 29.32 62.4 557 512 928 -0.93 0.00 0.00 0.000
3:55am 352 0 0 44 93 73.8 62.4 29.32 62.4 555 512 926 -0.91 0.00 0.00 0.000
3:56am 352 0 0 44 93 73.8 62.4 29.33 62.4 553 512 924 -0.90 0.00 0.00 0.000
3:57am 352 0 0 44 93 74.0 62.5 29.33 62.5 552 512 929 -0.78 0.00 0.00 0.000
3:58am 352 0 0 44 93 74.0 62.4 29.33 62.4 551 512 922 -0.87 0.00 0.00 0.000
3:59am 352 0 0 44 93 74.0 62.5 29.33 62.5 550 512 927 -0.76 0.00 0.00 0.000
4:00am 352 0 0 44 93 74.0 62.4 29.33 62.4 550 512 920 -0.84 0.00 0.00 0.000
4:01am 352 0 0 44 93 74.0 62.4 29.33 62.4 550 512 920 -0.83 0.00 0.00 0.000
4:02am 352 0 0 44 93 74.0 62.5 29.33 62.5 551 512 928 -0.72 0.00 0.00 0.000
4:03am 352 0 0 44 93 74.0 62.5 29.33 62.5 550 512 927 -0.71 0.00 0.00 0.000
4:04am 352 0 0 44 93 74.0 62.4 29.33 62.4 550 512 920 -0.79 0.00 0.00 0.000
4:05am 352 0 0 44 93 74.0 62.4 29.33 62.4 550 512 920 -0.78 0.00 0.00 0.000
4:06am 352 0 0 45 93 74.0 62.4 29.33 62.4 550 512 920 -0.77 0.00 0.00 0.000
4:07am 352 0 0 44 93 74.0 62.4 29.33 62.4 550 512 920 -0.75 0.00 0.00 0.000
4:08am 352 0 0 44 93 74.0 62.3 29.33 62.3 550 511 914 -0.84 0.00 0.00 0.000
4:09am 352 0 0 44 93 74.0 62.3 29.33 62.3 548 511 912 -0.83 0.00 0.00 0.000
4:10am 352 0 0 44 93 74.0 62.3 29.33 62.3 548 511 912 -0.81 0.00 0.00 0.000
4:11am 352 0 0 44 93 74.0 62.3 29.33 62.3 548 511 912 -0.80 0.00 0.00 0.000
4:12am 352 0 0 44 93 74.0 62.3 29.33 62.3 548 511 912 -0.79 0.00 0.00 0.000
4:13am 352 0 0 46 93 74.0 62.3 29.33 62.3 548 511 910 -0.77 0.00 0.00 0.000
4:14am 352 0 0 44 93 74.0 62.2 29.33 62.2 548 511 904 -0.86 0.00 0.00 0.000
4:15am 352 0 0 45 93 74.0 62.3 29.33 62.3 548 511 910 -0.75 0.00 0.00 0.000
4:16am 352 0 0 44 93 74.2 62.2 29.33 62.2 547 511 903 -0.83 0.00 0.00 0.000
4:17am 352 0 0 44 93 74.2 62.3 29.33 62.3 547 511 909 -0.72 0.00 0.00 0.000
4:18am 352 0 0 45 93 74.2 62.3 29.33 62.3 547 511 909 -0.71 0.00 0.00 0.000
4:19am 352 0 0 44 93 74.2 62.3 29.33 62.3 547 511 909 -0.70 0.00 0.00 0.000
4:20am 352 0 0 45 93 74.2 62.3 29.33 62.3 547 511 909 -0.68 0.00 0.00 0.000
4:21am 352 0 0 45 93 74.2 62.3 29.33 62.3 546 511 908 -0.67 0.00 0.00 0.000
4:22am 352 0 0 45 93 74.2 62.3 29.33 62.3 546 511 908 -0.66 0.00 0.00 0.000
4:23am 352 0 0 44 93 74.2 62.3 29.33 62.3 546 511 908 -0.65 0.00 0.00 0.000
4:24am 352 0 0 44 93 74.2 62.3 29.33 62.3 546 511 908 -0.64 0.00 0.00 0.000
4:25am 352 0 0 45 93 74.0 62.3 29.33 62.3 546 511 908 -0.63 0.00 0.00 0.000
4:26am 352 0 0 45 93 74.0 62.3 29.33 62.3 546 511 908 -0.62 0.00 0.00 0.000
4:27am 352 0 0 44 93 74.0 62.3 29.33 62.3 546 511 908 -0.61 0.00 0.00 0.000
4:28am 352 0 0 45 93 74.0 62.4 29.33 62.4 546 512 915 -0.50 0.00 0.00 0.000
4:29am 352 0 0 44 93 74.0 62.3 29.33 62.3 546 511 908 -0.59 0.00 0.00 0.000
4:30am 352 0 0 44 93 74.0 62.3 29.33 62.3 546 511 908 -0.58 0.00 0.00 0.000
4:31am 352 0 0 45 93 74.0 62.3 29.34 62.3 545 511 907 -0.57 0.00 0.00 0.000
4:32am 352 0 0 44 93 74.0 62.3 29.34 62.3 544 511 906 -0.56 0.00 0.00 0.000
4:33am 352 0 0 45 93 74.0 62.4 29.34 62.4 544 512 912 -0.46 0.00 0.00 0.000
4:34am 352 0 0 44 93 74.0 62.4 29.34 62.4 544 512 912 -0.45 0.00 0.00 0.000
4:35am 352 0 0 44 93 74.0 62.4 29.34 62.4 545 512 914 -0.44 0.00 0.00 0.000
4:36am 352 0 0 45 93 74.0 62.4 29.33 62.4 546 512 915 -0.43 0.00 0.00 0.000
4:37am 352 0 0 44 93 74.0 62.4 29.33 62.4 546 512 915 -0.43 0.00 0.00 0.000
4:38am 352 0 0 44 93 74.0 62.4 29.33 62.4 546 512 915 -0.42 0.00 0.00 0.000
4:39am 352 0 0 45 93 74.0 62.4 29.33 62.4 547 512 916 -0.41 0.00 0.00 0.000
4:40am 352 0 0 44 93 74.0 62.4 29.33 62.4 547 512 916 -0.41 0.00 0.00 0.000
4:41am 352 0 0 45 93 74.0 62.4 29.33 62.4 546 512 915 -0.40 0.00 0.00 0.000
4:42am 352 0 0 45 93 74.0 62.3 29.33 62.3 546 511 908 -0.49 0.00 0.00 0.000
4:43am 352 0 0 45 93 74.0 62.3 29.33 62.3 546 511 908 -0.48 0.00 0.00 0.000
4:44am 352 0 0 45 93 74.0 62.3 29.33 62.3 546 511 908 -0.48 0.00 0.00 0.000
4:45am 352 0 0 45 93 74.0 62.3 29.33 62.3 546 511 908 -0.47 0.00 0.00 0.000
4:46am 352 0 0 45 93 74.0 62.4 29.33 62.4 547 512 916 -0.36 0.00 0.00 0.000
4:47am 352 0 0 45 93 74.0 62.3 29.33 62.3 547 511 909 -0.45 0.00 0.00 0.000
4:48am 352 0 0 44 93 74.0 62.4 29.33 62.4 547 512 916 -0.35 0.00 0.00 0.000
4:49am 352 0 0 45 93 74.0 62.4 29.33 62.4 547 512 916 -0.34 0.00 0.00 0.000
4:50am 352 0 0 45 93 74.0 62.4 29.33 62.4 546 512 915 -0.34 0.00 0.00 0.000
4:51am 352 0 0 44 93 74.0 62.4 29.34 62.4 545 512 914 -0.33 0.00 0.00 0.000
4:52am 352 0 0 45 93 74.0 62.4 29.34 62.4 544 512 912 -0.32 0.00 0.00 0.000
4:53am 352 0 0 44 93 74.0 62.4 29.34 62.4 541 512 909 -0.32 0.00 0.00 0.000
4:54am 352 0 0 45 93 74.0 62.4 29.34 62.4 541 512 909 -0.31 0.00 0.00 0.000
4:55am 352 0 0 45 93 74.0 62.5 29.34 62.5 540 512 914 -0.21 0.00 0.00 0.000
4:56am 352 0 0 44 93 74.0 62.5 29.34 62.5 540 512 914 -0.21 0.00 0.00 0.000
4:57am 352 0 0 44 92 74.0 62.5 29.34 62.5 539 588 913 -0.20 0.00 0.00 0.000
4:58am 352 0 0 45 92 74.0 62.5 29.34 62.5 540 588 914 -0.20 0.00 0.00 0.000
4:59am 352 0 0 45 92 74.0 62.5 29.34 62.5 539 588 913 -0.20 0.00 0.00 0.000
5:00am 352 0 0 45 92 74.0 62.5 29.34 62.5 538 588 912 -0.19 0.00 0.00 0.000
5:01am 352 0 0 45 92 74.0 62.6 29.34 62.6 537 588 917 -0.09 0.00 0.00 0.000
5:02am 352 0 0 45 92 74.0 62.6 29.34 62.6 537 588 917 -0.09 0.00 0.00 0.000
5:03am 352 0 0 45 92 74.0 62.6 29.34 62.6 536 588 916 -0.09 0.00 0.00 0.000
5:04am 352 0 0 45 92 74.0 62.6 29.34 62.6 536 588 916 -0.09 0.00 0.00 0.000
5:05am 352 0 0 45 92 74.0 62.6 29.35 62.6 536 588 915 -0.09 0.00 0.00 0.000
5:06am 352 0 0 45 92 74.2 62.7 29.35 62.7 536 588 922 0.01 0.00 0.00 0.000
5:07am 352 0 0 45 92 74.2 62.6 29.34 62.6 536 588 916 -0.08 0.00 0.00 0.000
5:08am 352 0 0 45 92 74.2 62.7 29.35 62.7 536 588 922 0.02 0.00 0.00 0.000
5:09am 352 0 0 44 92 74.2 62.7 29.35 62.7 536 588 922 0.02 0.00 0.00 0.000
5:10am 352 0 0 45 92 74.2 62.7 29.35 62.7 536 588 922 0.02 0.00 0.00 0.000
5:11am 352 0 0 45 92 74.2 62.7 29.35 62.7 536 588 922 0.02 0.00 0.00 0.000
5:12am 352 0 0 44 92 74.2 62.7 29.35 62.7 535 588 921 0.01 0.00 0.00 0.000
5:13am 352 0 0 45 92 74.2 62.7 29.35 62.7 535 588 921 0.01 0.00 0.00 0.000
5:14am 352 0 0 45 92 74.2 62.7 29.35 62.7 535 588 921 0.01 0.00 0.00 0.000
5:15am 352 0 0 44 91 74.2 62.7 29.35 62.7 535 665 921 0.01 0.00 0.00 0.000
5:16am 352 0 0 44 91 74.2 62.7 29.35 62.7 534 665 919 0.01 0.00 0.00 0.000
5:17am 352 0 0 45 91 74.2 62.7 29.35 62.7 534 665 919 0.01 0.00 0.00 0.000
5:18am 352 0 0 45 91 74.2 62.7 29.35 62.7 534 665 919 0.01 0.00 0.00 0.000
5:19am 352 0 0 45 91 74.2 62.7 29.35 62.7 534 665 919 0.01 0.00 0.00 0.000
5:20am 352 0 0 45 91 74.2 62.7 29.35 62.7 534 665 919 0.01 0.00 0.00 0.000
5:21am 352 0 0 44 91 74.2 62.8 29.35 62.8 534 665 926 0.11 0.00 0.00 0.000
5:22am 352 0 0 45 91 74.2 62.7 29.35 62.7 534 665 919 0.01 0.00 0.00 0.000
5:23am 352 0 0 45 91 74.2 62.7 29.35 62.7 534 665 919 0.01 0.00 0.00 0.000
5:24am 352 0 0 44 91 74.2 62.7 29.35 62.7 534 665 919 0.01 0.00 0.00 0.000
5:25am 352 0 0 45 91 74.2 62.7 29.35 62.7 534 665 919 0.01 0.00 0.00 0.000
5:26am 352 0 0 45 91 74.2 62.7 29.35 62.7 534 665 919 0.01 0.00 0.00 0.000
5:27am 352 0 0 45 91 74.2 62.7 29.35 62.7 533 665 918 0.01 0.00 0.00 0.000
5:28am 352 0 0 45 91 74.2 62.7 29.35 62.7 533 665 918 0.01 0.00 0.00 0.000
5:29am 352 0 0 45 91 74.2 62.7 29.35 62.7 533 665 918 0.01 0.00 0.00 0.000
5:30am 352 0 0 45 91 74.2 62.7 29.35 62.7 533 665 918 0.01 0.00 0.00 0.000
5:31am 352 0 0 45 91 74.2 62.7 29.35 62.7 533 665 918 0.01 0.00 0.00 0.000
5:32am 352 0 0 45 91 74.2 62.7 29.35 62.7 533 665 918 0.01 0.00 0.00 0.000
5:33am 352 0 0 45 91 74.2 62.6 29.35 62.6 533 665 912 -0.09 0.00 0.00 0.000
5:34am 352 0 0 45 91 74.2 62.6 29.35 62.6 533 665 912 -0.09 0.00 0.00 0.000
5:35am 352 0 0 45 91 74.2 62.6 29.35 62.6 533 665 912 -0.09 0.00 0.00 0.000
5:36am 352 0 0 45 91 74.3 62.6 29.35 62.6 533 665 912 -0.08 0.00 0.00 0.000
5:37am 352 0 0 45 91 74.3 62.5 29.35 62.5 533 665 905 -0.18 0.00 0.00 0.000
5:38am 352 0 0 45 91 74.3 62.5 29.35 62.5 533 665 905 -0.18 0.00 0.00 0.000
5:39am 352 0 0 45 92 74.3 62.5 29.35 62.5 533 588 905 -0.18 0.00 0.00 0.000
5:40am 352 0 0 45 91 74.3 62.5 29.35 62.5 534 665 906 -0.18 0.00 0.00 0.000
5:41am 352 0 0 45 92 74.3 62.5 29.35 62.5 534 588 906 -0.17 0.00 0.00 0.000
5:42am 352 0 0 45 92 74.3 62.5 29.35 62.5 534 588 906 -0.17 0.00 0.00 0.000
5:43am 352 0 0 45 92 74.3 62.5 29.35 62.5 533 588 905 -0.17 0.00 0.00 0.000
5:44am 352 0 0 45 92 74.3 62.4 29.35 62.4 533 588 899 -0.26 0.00 0.00 0.000
5:45am 352 0 0 45 92 74.3 62.5 29.35 62.5 533 588 905 -0.16 0.00 0.00 0.000
5:46am 352 0 0 45 92 74.3 62.4 29.35 62.4 532 588 898 -0.26 0.00 0.00 0.000
5:47am 352 0 0 45 92 74.3 62.4 29.35 62.4 532 588 898 -0.25 0.00 0.00 0.000
5:48am 352 0 0 45 92 74.3 62.4 29.35 62.4 532 588 898 -0.25 0.00 0.00 0.000
5:49am 352 0 0 45 92 74.3 62.4 29.35 62.4 532 588 898 -0.24 0.00 0.00 0.000
5:50am 352 0 0 45 92 74.3 62.4 29.35 62.4 531 588 896 -0.24 0.00 0.00 0.000
5:51am 352 0 0 45 92 74.3 62.4 29.35 62.4 531 588 896 -0.24 0.00 0.00 0.000
5:52am 352 0 0 45 92 74.3 62.3 29.35 62.3 531 587 890 -0.33 0.00 0.00 0.000
5:53am 352 0 0 45 92 74.3 62.4 29.35 62.4 531 588 896 -0.23 0.00 0.00 0.000
5:54am 352 0 0 45 92 74.3 62.3 29.35 62.3 530 587 889 -0.32 0.00 0.00 0.000
5:55am 352 0 0 45 92 74.3 62.3 29.35 62.3 529 587 888 -0.32 0.00 0.00 0.000
5:56am 352 0 0 45 92 74.3 62.2 29.35 62.2 529 587 881 -0.41 0.00 0.00 0.000
5:57am 352 0 0 45 92 74.3 62.2 29.35 62.2 528 587 880 -0.40 0.00 0.00 0.000
5:58am 352 0 0 45 92 74.3 62.2 29.35 62.2 527 587 879 -0.40 0.00 0.00 0.000
5:59am 352 0 0 45 92 74.3 62.2 29.35 62.2 528 587 880 -0.39 0.00 0.00 0.000
6:00am 352 0 0 45 92 74.3 62.2 29.35 62.2 527 587 879 -0.38 0.00 0.00 0.000
6:01am 352 0 0 45 92 74.5 62.2 29.36 62.2 526 587 878 -0.38 0.00 0.00 0.000
6:02am 352 0 0 45 92 74.3 62.2 29.36 62.2 525 587 877 -0.37 0.00 0.00 0.000
6:03am 352 0 0 45 92 74.5 62.1 29.36 62.1 524 587 869 -0.47 0.00 0.00 0.000
6:04am 352 0 0 45 92 74.5 62.1 29.36 62.1 524 587 868 -0.46 0.00 0.00 0.000
6:05am 352 0 0 45 92 74.5 62.1 29.36 62.1 523 587 867 -0.45 0.00 0.00 0.000
6:06am 352 0 0 45 92 74.5 62.1 29.36 62.1 522 587 866 -0.45 0.00 0.00 0.000
6:07am 352 0 0 45 92 74.5 62.1 29.36 62.1 521 587 864 -0.44 0.00 0.00 0.000
6:08am 352 0 0 45 92 74.5 62.1 29.36 62.1 520 587 863 -0.43 0.00 0.00 0.000
6:09am 352 0 0 45 92 74.7 62.1 29.36 62.1 520 587 863 -0.42 0.00 0.00 0.000
6:10am 352 0 0 45 92 74.7 62.1 29.36 62.1 520 587 863 -0.42 0.00 0.00 0.000
6:11am 352 0 0 45 92 74.7 62.0 29.36 62.0 519 587 856 -0.51 0.00 0.00 0.000
6:12am 352 0 0 45 92 74.7 62.0 29.36 62.0 519 587 856 -0.50 0.00 0.00 0.000
6:13am 352 0 0 45 92 74.5 62.0 29.36 62.0 519 587 856 -0.49 0.00 0.00 0.000
6:14am 352 0 0 45 92 74.5 62.0 29.36 62.0 520 587 857 -0.49 0.00 0.00 0.000
6:15am 352 0 0 45 92 74.5 62.0 29.36 62.0 520 587 857 -0.48 0.00 0.00 0.000
6:16am 352 0 0 45 92 74.5 62.0 29.36 62.0 520 587 857 -0.47 0.00 0.00 0.000
6:17am 352 0 0 45 92 74.5 61.9 29.36 61.9 520 586 850 -0.56 0.00 0.00 0.000
6:18am 352 0 0 45 93 74.5 61.9 29.36 61.9 519 511 849 -0.55 0.00 0.00 0.000
6:19am 352 0 0 45 92 74.5 61.9 29.36 61.9 519 586 849 -0.54 0.00 0.00 0.000
6:20am 352 0 0 45 93 74.5 61.9 29.36 61.9 519 511 849 -0.54 0.00 0.00 0.000
6:21am 352 0 0 45 93 74.5 61.9 29.36 61.9 519 511 849 -0.53 0.00 0.00 0.000
6:22am 352 0 0 45 93 74.5 61.9 29.36 61.9 519 511 849 -0.52 0.00 0.00 0.000
6:23am 352 0 0 45 93 74.3 61.9 29.36 61.9 519 511 849 -0.51 0.00 0.00 0.000
6:24am 352 0 0 45 93 74.3 61.9 29.36 61.9 519 511 849 -0.50 0.00 0.00 0.000
6:25am 352 0 0 45 93 74.3 61.9 29.36 61.9 519 511 849 -0.49 0.00 0.00 0.000
6:26am 352 0 0 45 93 74.3 61.9 29.36 61.9 519 511 849 -0.48 0.00 0.00 0.000
6:27am 352 0 0 45 93 74.3 61.8 29.36 61.8 520 510 844 -0.58 0.00 0.00 0.000
6:28am 352 0 0 45 93 74.3 61.8 29.36 61.8 519 510 843 -0.57 0.00 0.00 0.000
6:29am 352 0 0 45 93 74.3 61.9 29.36 61.9 519 511 849 -0.46 0.00 0.00 0.000
6:30am 352 0 0 45 93 74.3 61.8 29.36 61.8 519 510 843 -0.55 0.00 0.00 0.000
6:31am 352 0 0 45 93 74.3 61.8 29.36 61.8 519 510 843 -0.54 0.00 0.00 0.000
6:32am 352 0 0 45 93 74.3 61.8 29.36 61.8 519 510 843 -0.53 0.00 0.00 0.000
6:33am 352 0 0 45 93 74.3 61.8 29.36 61.8 519 510 843 -0.52 0.00 0.00 0.000
6:34am 352 0 0 45 93 74.3 61.8 29.36 61.8 519 510 843 -0.51 0.00 0.00 0.000
6:35am 352 0 0 45 93 74.3 61.8 29.36 61.8 518 510 842 -0.50 0.00 0.00 0.000
6:36am 352 0 0 45 93 74.3 61.8 29.37 61.8 517 510 840 -0.50 0.00 0.00 0.000
6:37am 352 0 0 45 93 74.3 61.8 29.36 61.8 518 510 842 -0.49 0.00 0.00 0.000
6:38am 352 0 0 45 93 74.3 61.8 29.37 61.8 517 510 840 -0.48 0.00 0.00 0.000
6:39am 352 0 0 45 93 74.3 61.8 29.37 61.8 517 510 840 -0.47 0.00 0.00 0.000
6:40am 352 0 0 45 93 74.3 61.8 29.37 61.8 517 510 840 -0.46 0.00 0.00 0.000
6:41am 352 0 0 45 93 74.3 61.8 29.37 61.8 516 510 839 -0.46 0.00 0.00 0.000
6:42am 352 0 0 45 93 74.3 61.7 29.37 61.7 515 510 832 -0.55 0.00 0.00 0.000
6:43am 352 0 0 45 93 74.3 61.7 29.37 61.7 514 510 830 -0.54 0.00 0.00 0.000
6:44am 352 0 0 45 94 74.3 61.8 29.37 61.8 512 435 835 -0.43 0.00 0.00 0.000
6:45am 352 0 0 45 94 74.3 61.7 29.37 61.7 511 435 826 -0.52 0.00 0.00 0.000
6:46am 352 0 0 45 94 74.3 61.7 29.37 61.7 509 435 824 -0.51 0.00 0.00 0.000
6:47am 352 0 0 45 94 74.3 61.8 29.37 61.8 508 435 829 -0.41 0.00 0.00 0.000
6:48am 352 0 0 45 94 74.3 61.7 29.38 61.7 507 435 821 -0.50 0.00 0.00 0.000
6:49am 352 0 0 45 94 74.3 61.7 29.38 61.7 507 435 821 -0.49 0.00 0.00 0.000
6:50am 352 0 0 45 94 74.3 61.7 29.38 61.7 507 435 821 -0.48 0.00 0.00 0.000
6:51am 352 0 0 45 94 74.5 61.7 29.38 61.7 506 435 820 -0.47 0.00 0.00 0.000
6:52am 352 0 0 45 94 74.5 61.7 29.38 61.7 506 435 820 -0.47 0.00 0.00 0.000
6:53am 352 0 0 45 94 74.5 61.7 29.38 61.7 505 435 819 -0.46 0.00 0.00 0.000
6:54am 352 0 0 45 94 74.5 61.7 29.38 61.7 505 435 819 -0.45 0.00 0.00 0.000
6:55am 352 0 0 46 94 74.5 61.6 29.38 61.6 505 435 813 -0.54 0.00 0.00 0.000
6:56am 352 0 0 45 94 74.5 61.7 29.38 61.7 505 435 819 -0.44 0.00 0.00 0.000
6:57am 352 0 0 45 94 74.5 61.6 29.38 61.6 504 435 811 -0.53 0.00 0.00 0.000
6:58am 352 0 0 45 94 74.5 61.7 29.38 61.7 504 435 818 -0.42 0.00 0.00 0.000
6:59am 352 0 0 45 94 74.5 61.7 29.38 61.7 504 435 818 -0.41 0.00 0.00 0.000
7:00am 352 0 0 45 94 74.5 61.7 29.38 61.7 504 435 818 -0.41 0.00 0.00 0.000
7:01am 352 0 0 45 94 74.5 61.7 29.38 61.7 503 435 817 -0.40 0.00 0.00 0.000
7:02am 352 0 0 45 94 74.5 61.7 29.38 61.7 503 435 817 -0.39 0.00 0.00 0.000
7:03am 352 0 0 45 94 74.5 61.7 29.38 61.7 502 435 816 -0.39 0.00 0.00 0.000
7:04am 352 0 0 45 94 74.5 61.7 29.38 61.7 502 435 816 -0.38 0.00 0.00 0.000
7:05am 352 0 0 45 94 74.5 61.6 29.38 61.6 502 435 809 -0.47 0.00 0.00 0.000
7:06am 352 0 0 45 94 74.5 61.7 29.38 61.7 502 435 816 -0.37 0.00 0.00 0.000
7:07am 352 0 0 45 94 74.5 61.7 29.38 61.7 502 435 816 -0.36 0.00 0.00 0.000
7:08am 352 0 0 45 94 74.5 61.6 29.38 61.6 502 435 809 -0.45 0.00 0.00 0.000
7:09am 352 0 0 45 94 74.5 61.7 29.38 61.7 502 435 816 -0.35 0.00 0.00 0.000
7:10am 352 0 0 45 94 74.5 61.7 29.38 61.7 502 435 816 -0.34 0.00 0.00 0.000
7:11am 352 0 0 45 94 74.5 61.7 29.38 61.7 502 435 816 -0.33 0.00 0.00 0.000
7:12am 352 0 0 45 94 74.5 61.7 29.38 61.7 502 435 816 -0.33 0.00 0.00 0.000
7:13am 352 0 0 45 94 74.5 61.7 29.38 61.7 501 435 815 -0.32 0.00 0.00 0.000
7:14am 352 0 0 45 94 74.7 61.6 29.38 61.6 500 435 807 -0.42 0.00 0.00 0.000
7:15am 352 0 0 45 94 74.7 61.7 29.38 61.7 500 435 813 -0.31 0.00 0.00 0.000
7:16am 352 0 0 45 94 74.7 61.8 29.38 61.8 499 435 818 -0.21 0.00 0.00 0.000
7:17am 352 0 0 45 94 74.7 61.8 29.38 61.8 499 435 818 -0.20 0.00 0.00 0.000
7:18am 352 0 0 45 94 74.7 61.8 29.38 61.8 499 435 818 -0.20 0.00 0.00 0.000
7:19am 352 0 0 45 95 74.7 61.8 29.38 61.8 499 361 818 -0.20 0.00 0.00 0.000
7:20am 352 0 0 45 95 74.7 61.8 29.38 61.8 499 361 818 -0.19 0.00 0.00 0.000
7:21am 352 0 0 45 95 74.7 61.8 29.38 61.8 499 361 818 -0.19 0.00 0.00 0.000
7:22am 352 0 0 45 95 74.7 61.8 29.38 61.8 500 361 819 -0.19 0.00 0.00 0.000
7:23am 352 0 0 45 95 74.7 61.8 29.38 61.8 500 361 819 -0.18 0.00 0.00 0.000
7:24am 352 0 0 45 95 74.7 61.8 29.39 61.8 498 361 817 -0.18 0.00 0.00 0.000
7:25am 352 0 0 45 95 74.7 61.8 29.39 61.8 498 361 817 -0.18 0.00 0.00 0.000
7:26am 352 0 0 45 95 74.7 61.8 29.39 61.8 498 361 817 -0.17 0.00 0.00 0.000
7:27am 352 0 0 45 95 74.7 61.8 29.38 61.8 499 361 818 -0.17 0.00 0.00 0.000
7:28am 352 0 0 45 95 74.7 61.9 29.38 61.9 499 361 824 -0.07 0.00 0.00 0.000
7:29am 352 0 0 45 95 74.7 61.9 29.38 61.9 499 361 824 -0.07 0.00 0.00 0.000
7:30am 352 0 0 45 95 74.7 61.9 29.38 61.9 499 361 824 -0.07 0.00 0.00 0.000
7:31am 352 0 0 45 95 74.7 61.9 29.39 61.9 498 361 823 -0.07 0.00 0.00 0.000
7:32am 352 0 0 45 95 74.7 62.0 29.39 62.0 496 361 827 0.03 0.00 0.00 0.000
7:33am 352 0 0 45 95 74.7 62.0 29.39 62.0 495 361 826 0.03 0.00 0.00 0.000
7:34am 352 0 0 45 95 74.7 62.0 29.39 62.0 494 361 825 0.03 0.00 0.00 0.000
7:35am 352 0 0 45 95 74.7 62.0 29.39 62.0 494 361 825 0.03 0.00 0.00 0.000
7:36am 352 0 0 45 95 74.7 62.0 29.39 62.0 493 361 824 0.03 0.00 0.00 0.000
7:37am 352 0 0 45 95 74.7 62.1 29.39 62.1 493 361 830 0.13 0.00 0.00 0.000
7:38am 352 0 0 45 95 74.7 62.1 29.39 62.1 492 361 829 0.13 0.00 0.00 0.000
7:39am 352 0 0 45 95 74.7 62.1 29.39 62.1 492 361 829 0.13 0.00 0.00 0.000
7:40am 352 0 0 45 95 74.7 62.2 29.39 62.2 492 361 836 0.22 0.00 0.00 0.000
7:41am 352 0 0 45 95 74.7 62.3 29.39 62.3 492 362 842 0.32 0.00 0.00 0.000
7:42am 352 0 0 45 95 74.7 62.3 29.39 62.3 491 362 841 0.31 0.00 0.00 0.000
7:43am 352 0 0 45 95 74.7 62.4 29.39 62.4 490 362 847 0.41 0.00 0.00 0.000
7:44am 352 0 0 45 95 74.7 62.5 29.39 62.5 490 362 853 0.50 0.00 0.00 0.000
7:45am 352 0 0 45 95 74.7 62.5 29.39 62.5 490 362 853 0.49 0.00 0.00 0.000
7:46am 352 0 0 45 95 74.7 62.6 29.39 62.6 490 362 860 0.58 0.00 0.00 0.000
7:47am 352 0 0 45 94 74.9 62.7 29.39 62.7 490 437 866 0.67 0.00 0.00 0.000
7:48am 352 0 0 45 95 74.9 62.8 29.39 62.8 490 362 873 0.76 0.00 0.00 0.000
7:49am 352 0 0 45 95 74.9 62.9 29.39 62.9 490 363 879 0.85 0.00 0.00 0.000
7:50am 352 0 0 45 95 74.9 62.9 29.39 62.9 490 363 879 0.83 0.00 0.00 0.000
7:51am 347 0 0 45 94 74.9 63.0 29.39 63.0 490 437 886 0.92 0.00 0.00 0.000
7:52am 347 0 0 45 94 74.9 63.1 29.39 63.1 490 438 892 1.00 0.00 0.00 0.000
7:53am 351 0 0 45 94 74.9 63.2 29.39 63.2 490 438 899 1.08 0.00 0.00 0.000
7:54am 351 0 0 45 94 74.9 63.3 29.39 63.3 490 438 905 1.17 0.00 0.00 0.000
7:55am 351 0 0 45 94 74.9 63.3 29.39 63.3 490 438 905 1.15 0.00 0.00 0.000
7:56am 351 0 0 45 93 74.9 63.4 29.39 63.4 489 514 910 1.22 0.00 0.00 0.000
7:57am 351 0 0 45 93 74.9 63.6 29.39 63.6 489 514 923 1.40 0.00 0.00 0.000
7:58am 351 0 0 45 93 74.9 63.6 29.39 63.6 489 514 923 1.38 0.00 0.00 0.000
7:59am 63 0 0 45 92 74.9 63.7 29.39 63.7 489 591 930 1.46 0.00 0.00 0.000
8:00am 27 0 0 45 92 74.9 63.7 29.39 63.7 489 591 930 1.43 0.00 0.00 0.000
8:01am 27 0 0 45 92 74.9 63.8 29.39 63.8 489 591 936 1.51 0.00 0.00 0.000
8:02am 27 0 0 45 92 74.9 63.9 29.39 63.9 489 591 943 1.58 0.00 0.00 0.000
8:03am 27 0 0 45 92 74.9 64.0 29.39 64.0 489 592 949 1.65 0.00 0.00 0.000
8:04am 27 0 0 45 92 74.9 64.0 29.40 64.0 488 592 948 1.63 0.00 0.00 0.000
8:05am 27 0 0 45 91 74.9 64.1 29.40 64.1 488 669 955 1.70 0.00 0.00 0.000
8:06am 310 0 0 45 91 74.9 64.1 29.40 64.1 488 669 955 1.67 0.00 0.00 0.000
8:07am 327 0 0 45 91 74.9 64.2 29.40 64.2 488 669 960 1.74 0.00 0.00 0.000
8:08am 327 0 0 45 91 74.9 64.2 29.40 64.2 487 669 959 1.71 0.00 0.00 0.000
8:09am 327 0 0 45 91 74.9 64.3 29.40 64.3 486 670 964 1.78 0.00 0.00 0.000
8:10am 331 0 0 45 91 74.9 64.4 29.40 64.4 486 670 971 1.85 0.00 0.00 0.000
8:11am 343 0 0 45 91 74.9 64.5 29.40 64.5 485 670 976 1.92 0.00 0.00 0.000
8:12am 346 0 0 45 91 74.9 64.5 29.40 64.5 485 670 976 1.89 0.00 0.00 0.000
8:13am 351 0 0 45 91 75.0 64.6 29.40 64.6 484 670 981 1.96 0.00 0.00 0.000
8:14am 356 0 0 45 91 75.0 64.7 29.40 64.7 484 671 988 2.03 0.00 0.00 0.000
8:15am 356 0 0 45 91 75.0 64.7 29.40 64.7 483 671 987 1.99 0.00 0.00 0.000
8:16am 356 0 0 45 91 75.0 64.8 29.40 64.8 483 671 993 2.05 0.00 0.00 0.000
8:17am 356 0 0 45 91 75.0 64.9 29.40 64.9 483 671 1000 2.12 0.00 0.00 0.000
8:18am 356 0 0 45 91 75.0 64.9 29.40 64.9 482 671 998 2.09 0.00 0.00 0.000
8:19am 360 0 0 45 91 75.0 65.0 29.40 65.0 482 672 1005 2.15 0.00 0.00 0.000
8:20am 360 0 0 45 91 75.0 65.1 29.40 65.1 481 672 1010 2.22 0.00 0.00 0.000
8:21am 12 0 0 45 90 75.0 65.2 29.40 65.2 481 751 1017 2.28 0.00 0.00 0.000
8:22am 81 0 0 45 90 75.0 65.2 29.40 65.2 480 751 1016 2.24 0.00 0.00 0.000
8:23am 81 0 0 45 90 75.0 65.3 29.40 65.3 480 751 1022 2.31 0.00 0.00 0.000
8:24am 81 0 0 45 90 75.0 65.3 29.40 65.3 480 751 1022 2.27 0.00 0.00 0.000
8:25am 81 0 0 45 90 75.0 65.4 29.40 65.4 480 751 1029 2.33 0.00 0.00 0.000
8:26am 81 0 0 45 90 75.0 65.5 29.41 65.5 478 752 1033 2.39 0.00 0.00 0.000
8:27am 81 0 0 45 90 75.0 65.5 29.41 65.5 477 752 1032 2.35 0.00 0.00 0.000
8:28am 81 0 0 45 90 75.0 65.6 29.41 65.6 477 752 1038 2.41 0.00 0.00 0.000
8:29am 81 0 0 45 90 75.0 65.7 29.41 65.7 477 752 1044 2.47 0.00 0.00 0.000
8:30am 81 0 0 45 90 75.0 65.8 29.41 65.8 477 752 1051 2.53 0.00 0.00 0.000
8:31am 81 0 0 45 90 75.0 65.8 29.41 65.8 476 752 1050 2.49 0.00 0.00 0.000
8:32am 81 0 0 45 90 75.0 65.9 29.41 65.9 476 753 1056 2.54 0.00 0.00 0.000
8:33am 81 0 0 45 89 75.0 66.0 29.41 66.0 476 833 1063 2.60 0.00 0.00 0.000
8:34am 81 0 0 45 90 75.0 66.0 29.41 66.0 476 753 1063 2.56 0.00 0.00 0.000
8:35am 81 0 0 45 90 75.0 66.1 29.41 66.1 476 753 1068 2.62 0.00 0.00 0.000
8:36am 32 0 0 45 90 75.2 66.1 29.41 66.1 476 753 1069 2.57 0.00 0.00 0.000
8:37am 347 0 0 45 89 75.2 66.2 29.41 66.2 476 833 1076 2.63 0.00 0.00 0.000
8:38am 347 0 0 45 89 75.2 66.3 29.41 66.3 476 834 1082 2.69 0.00 0.00 0.000
8:39am 331 0 0 45 89 75.2 66.4 29.41 66.4 476 834 1088 2.74 0.00 0.00 0.000
8:40am 59 0 0 45 89 75.2 66.4 29.41 66.4 476 834 1087 2.70 0.00 0.00 0.000
8:41am 58 0 0 45 89 75.2 66.5 29.41 66.5 475 834 1093 2.75 0.00 0.00 0.000
8:42am 58 0 0 45 89 75.2 66.5 29.41 66.5 475 834 1093 2.70 0.00 0.00 0.000
8:43am 58 0 0 45 89 75.2 66.6 29.41 66.6 475 835 1099 2.76 0.00 0.00 0.000
8:44am 58 0 0 45 89 75.2 66.7 29.41 66.7 475 835 1106 2.81 0.00 0.00 0.000
8:45am 328 0 0 45 89 75.2 66.8 29.41 66.8 475 835 1112 2.87 0.00 0.00 0.000
8:46am 347 0 0 45 89 75.2 66.8 29.41 66.8 475 835 1112 2.82 0.00 0.00 0.000
8:47am 347 0 0 45 88 75.2 66.9 29.41 66.9 475 916 1118 2.87 0.00 0.00 0.000
8:48am 347 0 0 45 88 75.2 67.0 29.41 67.0 475 917 1125 2.92 0.00 0.00 0.000
8:49am 347 0 0 45 88 75.2 67.0 29.41 67.0 475 917 1125 2.87 0.00 0.00 0.000
8:50am 347 0 0 45 88 75.2 67.1 29.41 67.1 475 917 1131 2.92 0.00 0.00 0.000
8:51am 347 0 0 45 88 75.2 67.2 29.41 67.2 476 917 1139 2.97 0.00 0.00 0.000
8:52am 347 0 0 45 88 75.2 67.3 29.41 67.3 475 918 1144 3.02 0.00 0.00 0.000
8:53am 37 0 0 45 88 75.2 67.4 29.41 67.4 476 918 1152 3.07 0.00 0.00 0.000
8:54am 57 0 0 45 88 75.2 67.5 29.41 67.5 475 918 1157 3.12 0.00 0.00 0.000
8:55am 349 0 0 45 88 75.2 67.6 29.41 67.6 476 919 1165 3.17 0.00 0.00 0.000
8:56am 8 0 0 45 87 75.2 67.7 29.41 67.7 476 1001 1171 3.22 0.00 0.00 0.000
8:57am 43 0 0 45 87 75.2 67.7 29.41 67.7 476 1001 1171 3.16 0.00 0.00 0.000
8:58am 43 0 0 45 87 75.2 67.8 29.41 67.8 476 1001 1177 3.21 0.00 0.00 0.000
8:59am 27 0 0 45 87 75.4 67.9 29.41 67.9 476 1002 1184 3.25 0.00 0.00 0.000
9:00am 23 0 0 45 87 75.4 68.0 29.41 68.0 476 1002 1190 3.30 0.00 0.00 0.000
9:01am 23 0 0 45 87 75.4 68.0 29.41 68.0 476 1002 1191 3.24 0.00 0.00 0.000
9:02am 23 0 0 45 87 75.4 68.1 29.41 68.1 476 1003 1198 3.29 0.00 0.00 0.000
9:03am 6 0 0 45 87 75.4 68.1 29.41 68.1 476 1003 1198 3.24 0.00 0.00 0.000
9:04am 79 0 0 45 87 75.4 68.2 29.41 68.2 476 1003 1204 3.28 0.00 0.00 0.000
9:05am 17 0 0 45 87 75.4 68.3 29.41 68.3 476 1003 1211 3.33 0.00 0.00 0.000
9:06am 16 0 0 45 86 75.4 68.3 29.41 68.3 476 1086 1211 3.27 0.00 0.00 0.000
9:07am 16 0 0 45 86 75.4 68.4 29.41 68.4 476 1086 1217 3.32 0.00 0.00 0.000
9:08am 21 0 0 45 86 75.4 68.4 29.41 68.4 476 1086 1217 3.26 0.00 0.00 0.000
9:09am 21 0 0 45 87 75.4 68.5 29.41 68.5 476 1004 1224 3.31 0.00 0.00 0.000
9:10am 79 0 0 45 86 75.4 68.6 29.41 68.6 476 1087 1230 3.35 0.00 0.00 0.000
9:11am 79 0 0 45 86 75.4 68.7 29.41 68.7 476 1088 1236 3.40 0.00 0.00 0.000
9:12am 79 0 0 45 86 75.4 68.8 29.41 68.8 476 1088 1243 3.44 0.00 0.00 0.000
9:13am 79 0 0 45 87 75.4 69.0 29.41 69.0 476 1006 1254 3.58 0.00 0.00 0.000
9:14am 79 0 0 45 86 75.4 69.1 29.41 69.1 476 1090 1261 3.62 0.00 0.00 0.000
9:15am 79 0 0 45 86 75.4 69.3 29.41 69.3 476 1091 1274 3.76 0.00 0.00 0.000
9:16am 79 0 0 45 86 75.4 69.4 29.41 69.4 476 1091 1280 3.80 0.00 0.00 0.000
9:17am 79 0 0 45 86 75.4 69.5 29.41 69.5 476 1091 1286 3.83 0.00 0.00 0.000
9:18am 79 0 0 45 86 75.4 69.7 29.41 69.7 476 1092 1299 3.97 0.00 0.00 0.000
9:19am 79 0 0 45 86 75.6 69.9 29.41 69.9 476 1093 1312 4.10 0.00 0.00 0.000
9:20am 79 0 0 45 86 75.6 70.0 29.41 70.0 476 1094 1318 4.13 0.00 0.00 0.000
9:21am 79 0 0 45 85 75.6 70.1 29.41 70.1 476 1178 1325 4.16 0.00 0.00 0.000
9:22am 79 0 0 45 85 75.6 70.2 29.41 70.2 476 1179 1331 4.19 0.00 0.00 0.000
9:23am 79 0 0 45 85 75.6 70.4 29.41 70.4 476 1180 1345 4.32 0.00 0.00 0.000
9:24am 79 0 0 45 85 75.6 70.5 29.41 70.5 476 1180 1350 4.35 0.00 0.00 0.000
9:25am 79 0 0 45 85 75.6 70.7 29.41 70.7 476 1181 1363 4.47 0.00 0.00 0.000
9:26am 79 0 0 45 84 75.6 70.9 29.41 70.9 476 1268 1376 4.60 0.00 0.00 0.000
9:27am 81 0 0 45 83 75.6 71.0 29.41 71.0 476 1354 1382 4.62 0.00 0.00 0.000
9:28am 81 0 0 45 82 75.6 71.0 29.41 71.0 476 1441 1382 4.54 0.00 0.00 0.000
9:29am 80 0 0 45 83 75.6 71.0 29.41 71.0 476 1354 1382 4.47 0.00 0.00 0.000
9:30am 80 0 0 45 83 75.6 71.0 29.41 71.0 476 1354 1382 4.40 0.00 0.00 0.000
9:31am 80 0 0 45 83 75.4 71.1 29.41 71.1 476 1355 1389 4.42 0.00 0.00 0.000
9:32am 80 0 0 45 83 75.4 71.2 29.41 71.2 476 1355 1395 4.45 0.00 0.00 0.000
9:33am 80 0 0 45 83 75.4 71.3 29.41 71.3 476 1356 1402 4.47 0.00 0.00 0.000
9:34am 80 0 0 45 83 75.4 71.3 29.41 71.3 476 1356 1401 4.40 0.00 0.00 0.000
9:35am 80 0 0 45 83 75.4 71.3 29.41 71.3 476 1356 1402 4.32 0.00 0.00 0.000
9:36am 80 0 0 45 83 75.4 71.4 29.41 71.4 476 1357 1409 4.35 0.00 0.00 0.000
9:37am 80 0 0 45 83 75.4 71.4 29.41 71.4 476 1357 1409 4.28 0.00 0.00 0.000
9:38am 80 0 0 45 83 75.4 71.5 29.41 71.5 476 1357 1415 4.31 0.00 0.00 0.000
9:39am 80 0 0 45 83 75.2 71.5 29.41 71.5 476 1357 1414 4.24 0.00 0.00 0.000
9:40am 80 0 0 45 83 75.2 71.5 29.41 71.5 476 1357 1414 4.17 0.00 0.00 0.000
9:41am 80 0 0 45 83 75.2 71.5 29.41 71.5 476 1357 1414 4.10 0.00 0.00 0.000
9:42am 80 0 0 45 83 75.2 71.7 29.41 71.7 476 1358 1427 4.23 0.00 0.00 0.000
9:43am 80 0 0 45 83 75.2 71.7 29.41 71.7 476 1358 1427 4.16 0.00 0.00 0.000
9:44am 80 0 0 45 83 75.2 71.8 29.41 71.8 476 1359 1433 4.19 0.00 0.00 0.000
9:45am 80 0 0 45 83 75.2 71.9 29.41 71.9 476 1359 1440 4.22 0.00 0.00 0.000
9:46am 80 0 0 45 82 75.2 71.9 29.41 71.9 475 1447 1438 4.15 0.00 0.00 0.000
9:47am 80 0 0 45 82 75.0 72.0 29.41 72.0 476 1447 1446 4.18 0.00 0.00 0.000
9:48am 81 0 0 45 82 75.0 72.0 29.41 72.0 475 1447 1445 4.11 0.00 0.00 0.000
9:49am 80 0 0 45 81 75.0 72.1 29.41 72.1 475 1536 1451 4.15 0.00 0.00 0.000
9:50am 80 0 0 45 81 75.0 72.2 29.41 72.2 475 1537 1458 4.17 0.00 0.00 0.000
9:51am 81 0 0 45 80 75.0 72.2 29.41 72.2 475 1627 1458 4.11 0.00 0.00 0.000
9:52am 81 0 0 45 79 75.0 72.1 29.41 72.1 475 1716 1451 3.94 0.00 0.00 0.000
9:53am 81 0 0 45 80 75.0 72.1 29.41 72.1 475 1626 1451 3.87 0.00 0.00 0.000
9:54am 81 0 0 45 81 75.0 72.1 29.41 72.1 475 1536 1451 3.81 0.00 0.00 0.000
9:55am 81 0 0 45 80 75.0 72.1 29.41 72.1 475 1626 1451 3.75 0.00 0.00 0.000
9:56am 81 0 0 45 80 75.0 72.1 29.41 72.1 475 1626 1451 3.69 0.00 0.00 0.000
9:57am 81 0 0 45 80 75.0 72.1 29.41 72.1 476 1626 1452 3.63 0.00 0.00 0.000
9:58am 81 0 0 45 80 75.0 72.0 29.41 72.0 476 1625 1446 3.46 0.00 0.00 0.000
9:59am 75 0 0 45 80 75.0 72.1 29.41 72.1 476 1626 1452 3.50 0.00 0.00 0.000
10:00am 75 0 0 45 80 75.0 72.1 29.41 72.1 475 1626 1451 3.45 0.00 0.00 0.000
10:01am 75 0 0 45 81 75.2 72.1 29.41 72.1 475 1536 1451 3.39 0.00 0.00 0.000
10:02am 76 0 0 45 81 75.2 72.2 29.41 72.2 475 1537 1458 3.43 0.00 0.00 0.000
10:03am 79 0 0 45 81 75.2 72.3 29.41 72.3 475 1538 1464 3.48 0.00 0.00 0.000
10:04am 79 0 0 45 80 75.2 72.4 29.41 72.4 475 1628 1470 3.52 0.00 0.00 0.000
10:05am 79 0 0 45 81 75.2 72.5 29.41 72.5 476 1539 1478 3.56 0.00 0.00 0.000
10:06am 79 0 0 45 81 75.2 72.5 29.41 72.5 476 1539 1478 3.50 0.00 0.00 0.000
10:07am 79 0 0 45 80 75.2 72.6 29.41 72.6 476 1629 1484 3.54 0.00 0.00 0.000
10:08am 79 0 0 45 80 75.2 72.6 29.41 72.6 476 1629 1484 3.48 0.00 0.00 0.000
10:09am 79 0 0 45 81 75.2 72.8 29.41 72.8 476 1541 1497 3.62 0.00 0.00 0.000
10:10am 79 0 0 45 80 75.2 72.8 29.41 72.8 475 1631 1496 3.56 0.00 0.00 0.000
10:11am 66 0 0 45 80 75.2 72.8 29.41 72.8 476 1631 1497 3.50 0.00 0.00 0.000
10:12am 39 0 0 45 79 75.2 72.8 29.41 72.8 476 1721 1497 3.44 0.00 0.00 0.000
10:13am 39 0 0 45 79 75.2 72.8 29.41 72.8 476 1721 1497 3.39 0.00 0.00 0.000
10:14am 73 0 0 45 80 75.2 72.8 29.41 72.8 475 1631 1496 3.33 0.00 0.00 0.000
10:15am 1 0 0 45 79 75.2 72.8 29.41 72.8 475 1721 1496 3.28 0.00 0.00 0.000
10:16am 79 0 0 45 78 75.2 72.8 29.41 72.8 475 1813 1496 3.23 0.00 0.00 0.000
10:17am 80 0 0 45 79 75.2 72.7 29.41 72.7 475 1721 1489 3.07 0.00 0.00 0.000
10:18am 80 0 0 45 79 75.0 72.7 29.41 72.7 475 1721 1489 3.02 0.00 0.00 0.000
10:19am 80 0 0 45 79 75.0 72.8 29.41 72.8 475 1721 1496 3.07 0.00 0.00 0.000
10:20am 80 0 0 45 79 75.0 72.8 29.41 72.8 475 1721 1496 3.02 0.00 0.00 0.000
10:21am 80 0 0 45 81 75.0 72.9 29.41 72.9 475 1542 1502 3.07 0.00 0.00 0.000
10:22am 80 0 0 45 81 75.0 73.0 29.41 73.0 475 1542 1508 3.12 0.00 0.00 0.000
10:23am 80 0 0 45 80 75.0 73.0 29.41 73.0 475 1632 1508 3.07 0.00 0.00 0.000
10:24am 80 0 0 45 79 75.0 73.0 29.41 73.0 474 1723 1507 3.02 0.00 0.00 0.000
10:25am 80 0 0 45 79 75.0 73.0 29.41 73.0 474 1723 1507 2.97 0.00 0.00 0.000
10:26am 80 0 0 45 79 75.0 73.1 29.41 73.1 474 1723 1514 3.02 0.00 0.00 0.000
10:27am 80 0 0 45 79 74.9 73.2 29.41 73.2 473 1724 1519 3.07 0.00 0.00 0.000
10:28am 80 0 0 45 79 74.9 73.4 29.41 73.4 473 1726 1531 3.22 0.00 0.00 0.000
10:29am 80 0 0 45 78 74.9 73.6 29.41 73.6 474 1819 1545 3.36 0.00 0.00 0.000
10:30am 80 0 0 45 79 74.9 73.7 29.41 73.7 472 1728 1549 3.41 0.00 0.00 0.000
10:31am 80 0 0 45 78 74.9 73.7 29.41 73.7 472 1820 1549 3.35 0.00 0.00 0.000
10:32am 80 0 0 45 78 74.9 73.8 29.41 73.8 472 1821 1556 3.39 0.00 0.00 0.000
10:33am 80 0 0 45 78 74.9 73.9 29.41 73.9 472 1821 1562 3.43 0.00 0.00 0.000
10:34am 80 0 0 45 77 74.9 73.9 29.41 73.9 471 1914 1561 3.38 0.00 0.00 0.000
10:35am 350 0 0 45 77 74.9 73.9 29.41 73.9 471 1914 1561 3.32 0.00 0.00 0.000
10:36am 337 0 0 45 77 74.9 73.9 29.41 73.9 472 1914 1562 3.27 0.00 0.00 0.000
10:37am 333 0 0 45 77 74.9 73.9 29.41 73.9 473 1914 1563 3.21 0.00 0.00 0.000
10:38am 333 0 0 45 78 74.9 73.8 29.41 73.8 472 1821 1556 3.06 0.00 0.00 0.000
10:39am 334 0 0 45 78 74.9 73.8 29.41 73.8 472 1821 1556 3.01 0.00 0.00 0.000
10:40am 334 0 0 45 78 74.9 73.8 29.41 73.8 473 1821 1557 2.96 0.00 0.00 0.000
10:41am 334 0 0 45 79 74.9 73.8 29.41 73.8 473 1728 1557 2.91 0.00 0.00 0.000
10:42am 334 0 0 45 80 74.9 73.9 29.41 73.9 473 1638 1563 2.96 0.00 0.00 0.000
10:43am 33 0 0 45 79 74.9 74.0 29.41 74.0 473 1730 1569 3.01 0.00 0.00 0.000
10:44am 22 0 0 45 78 74.9 74.0 29.41 74.0 473 1822 1569 2.96 0.00 0.00 0.000
10:45am 34 0 0 45 77 74.9 74.1 29.41 74.1 473 1916 1576 3.01 0.00 0.00 0.000
10:46am 34 0 0 45 77 74.9 74.1 29.41 74.1 472 1916 1575 2.96 0.00 0.00 0.000
10:47am 34 0 0 45 78 74.9 74.2 29.41 74.2 471 1824 1580 3.01 0.00 0.00 0.000
10:48am 33 0 0 45 78 74.9 74.2 29.41 74.2 471 1824 1580 2.96 0.00 0.00 0.000
10:49am 33 0 0 45 79 74.9 74.2 29.42 74.2 470 1731 1579 2.91 0.00 0.00 0.000
10:50am 33 0 0 45 77 74.9 74.3 29.42 74.3 470 1918 1585 2.96 0.00 0.00 0.000
10:51am 220 0 0 45 77 74.9 74.3 29.41 74.3 471 1918 1586 2.91 0.00 0.00 0.000
10:52am 349 0 0 45 76 74.9 74.3 29.41 74.3 471 2012 1586 2.86 0.00 0.00 0.000
10:53am 349 0 0 45 76 74.9 74.3 29.41 74.3 471 2012 1586 2.82 0.00 0.00 0.000
10:54am 349 0 0 45 78 74.9 74.5 29.42 74.5 469 1826 1597 2.97 0.00 0.00 0.000
10:55am 76 0 0 45 77 74.9 74.5 29.42 74.5 469 1919 1597 2.92 0.00 0.00 0.000
10:56am 23 0 0 45 76 74.9 74.6 29.42 74.6 470 2014 1604 2.97 0.00 0.00 0.000
10:57am 77 0 0 45 76 74.9 74.6 29.41 74.6 471 2014 1605 2.92 0.00 0.00 0.000
10:58am 77 0 0 45 76 74.9 74.6 29.41 74.6 472 2014 1606 2.87 0.00 0.00 0.000
10:59am 77 0 0 45 76 74.9 74.6 29.41 74.6 473 2014 1607 2.83 0.00 0.00 0.000
11:00am 77 0 0 45 77 74.9 74.6 29.41 74.6 473 1920 1607 2.78 0.00 0.00 0.000
11:01am 59 0 0 45 77 74.9 74.7 29.41 74.7 473 1921 1614 2.83 0.00 0.00 0.000
11:02am 57 0 0 45 77 74.9 74.9 29.41 74.9 472 1922 1625 2.99 0.00 0.00 0.000
11:03am 86 0 0 45 76 74.9 74.9 29.41 74.9 473 2017 1626 2.94 0.00 0.00 0.000
11:04am 83 0 0 45 75 74.9 74.9 29.41 74.9 473 2113 1626 2.89 0.00 0.00 0.000
11:05am 83 0 0 45 76 74.7 74.8 29.41 74.8 472 2016 1619 2.74 0.00 0.00 0.000
11:06am 83 0 0 45 76 74.7 74.8 29.41 74.8 472 2016 1619 2.70 0.00 0.00 0.000
11:07am 83 0 0 45 76 74.7 74.8 29.41 74.8 472 2016 1619 2.65 0.00 0.00 0.000
11:08am 357 0 0 45 77 74.7 74.9 29.42 74.9 470 1922 1623 2.71 0.00 0.00 0.000
11:09am 351 0 0 45 75 74.7 74.9 29.42 74.9 469 2113 1622 2.66 0.00 0.00 0.000
11:10am 350 0 0 45 75 74.7 74.9 29.42 74.9 470 2113 1623 2.62 0.00 0.00 0.000
|
Data provided from: Mark Hofmann's Bel Air, MD Weather Station |